Location: Riedlingen
(48.1569°N, 9.4757°E)
Time: 04:07:37
(UTC+02:00)

ISS - Pass Details

Date: 19 May 2021
Orbit: 417 x 422 km, 51.6° (Epoch: 15 June)

Event Time Altitude Azimuth Distance (km) Brightness Sun altitude
Rises 23:41:39 0° 280° (W) 2,367 0.5 -18.5°
Reaches altitude 10° 23:43:49 10° 287° (WNW) 1,504 -0.4 -18.6°
Maximum altitude 23:47:04 44° 1° (N) 597 -2.6 -18.9°
Enters shadow 23:50:09 11° 74° (ENE) 1,438 -1.1 -19.1°
